Nairobi Jomo, Kenya

5:15 AM EAT on March 23, 2017 (GMT +0300)
Jomo Kenyatta

Weather History for HKJK - February, 2014

Change the Weather History Date:

Monday, February 24, 2014

  Actual Average (HKNW) Record (HKNW)
Temperature  
Mean Temperature 70 °F -  
Max Temperature 82 °F 77 °F 87 °F (2005)
Min Temperature 57 °F 61 °F 55 °F (2013)
Cooling Degree Days 4    
Growing Degree Days 20 (Base 50)    
Moisture  
Dew Point 57 °F    
Average Humidity 64    
Maximum Humidity 100    
Minimum Humidity 31    
Precipitation  
Precipitation 0.00 in - - ()
Sea Level Pressure  
Sea Level Pressure 30.08 in    
Wind  
Wind Speed 9 mph ()    
Max Wind Speed 18 mph    
Max Gust Speed -    
Visibility 7.3 miles    
Events Fog    
Averages and records for this station are not official NWS values.
T = Trace of Precipitation, MM = Missing Value Source: Averaged Metar Reports

Daily Weather History Graph

Daily Weather History Graph

Search for Another Location

Airport or City:

Trip Planner

Search our weather history database for the weather conditions in past years. The results will help you decide how hot, cold, wet, or windy it might be!

Date:

Astronomy

Feb. 24, 2014 Rise Set
Actual Time 6:41 AM EAT 6:49 PM EAT
Civil Twilight 6:20 AM EAT 7:10 PM EAT
Nautical Twilight 5:55 AM EAT 7:35 PM EAT
Astronomical Twilight 5:31 AM EAT 7:59 PM EAT
Moon 1:38 AM EAT (2/24) 2:10 PM EAT (2/24)
Length of Visible Light 12h 50m
Length of Day
12h 08m
Waning Crescent, 32% of the Moon is Illuminated
Feb 24
Waning Crescent
Mar 1
New
Mar 8
First Quarter
Mar 16
Full
Mar 24
Last Quarter

Hourly Weather History & Observations

Time (EAT) Temp. Heat Index Dew Point Humidity Pressure Visibility Wind Dir Wind Speed Gust Speed Precip Events Conditions
12:00 AM 64 °F - 56 °F 70%  in 19 mi NNE 6.9 mph - -   Scattered Clouds
12:00 AM 64.4 °F - 57.2 °F 77% 30.12 in - NNE 6.9 mph - N/A   Clear
1:00 AM 62.6 °F - 55.4 °F 77% 30.09 in - NNE 5.8 mph - N/A   Clear
2:00 AM 62.6 °F - 55.4 °F 77% 30.09 in - North 4.6 mph - N/A   Clear
3:00 AM 61 °F - 55 °F 75%  in 19 mi North 5.8 mph - -   Scattered Clouds
3:00 AM 60.8 °F - 55.4 °F 82% 30.06 in - North 5.8 mph - N/A   Clear
4:00 AM 60.8 °F - 55.4 °F 82% 30.06 in - NNW 5.8 mph - N/A   Clear
5:30 AM 59.0 °F - 55.4 °F 88% 30.09 in - NE 4.6 mph - N/A   Clear
6:00 AM 59 °F - 58 °F 95%  in 1 mi ENE 6.9 mph - - Fog Heavy Fog
6:00 AM 59.0 °F - 57.2 °F 94% 30.09 in 0.6 mi ENE 6.9 mph - N/A Fog Fog
7:00 AM 59.0 °F - 59.0 °F 100% 30.09 in 0.5 mi NE 3.5 mph - N/A Fog Fog
8:00 AM 62.6 °F - 60.8 °F 94% 30.12 in 6.2 mi North 3.5 mph - N/A   Partly Cloudy
8:30 AM 64.4 °F - 60.8 °F 88% 30.12 in 6.2 mi North 4.6 mph - N/A   Scattered Clouds
9:00 AM 66 °F - 59 °F 73%  in 12 mi North 4.6 mph - -   Mostly Cloudy
9:00 AM 66.2 °F - 59.0 °F 78% 30.15 in 6.2 mi North 4.6 mph - N/A   Scattered Clouds
9:30 AM 69.8 °F - 59.0 °F 68% 30.15 in 6.2 mi North 4.6 mph - N/A   Scattered Clouds
10:00 AM 71.6 °F - 57.2 °F 60% 30.15 in 6.2 mi North 8.1 mph - N/A   Scattered Clouds
10:30 AM 71.6 °F - 57.2 °F 60% 30.15 in 6.2 mi NNE 8.1 mph - N/A   Partly Cloudy
11:00 AM 73.4 °F - 57.2 °F 57% 30.12 in 6.2 mi NNE 10.4 mph - N/A   Partly Cloudy
11:30 AM 75.2 °F - 57.2 °F 53% 30.12 in 6.2 mi NE 11.5 mph - N/A   Scattered Clouds
12:00 PM 77.0 °F - 55.4 °F 47% 30.12 in 6.2 mi NE 13.8 mph - N/A   Scattered Clouds
12:30 PM 78.8 °F - 57.2 °F 47% 30.09 in 6.2 mi NE 17.3 mph - N/A   Scattered Clouds
1:00 PM 78.8 °F - 57.2 °F 47% 30.09 in 6.2 mi NE 13.8 mph - N/A   Scattered Clouds
1:30 PM 80.6 °F 80.3 °F 53.6 °F 39% 30.06 in 6.2 mi ENE 13.8 mph - N/A   Scattered Clouds
2:00 PM 80.6 °F 80.5 °F 55.4 °F 42% 30.04 in 6.2 mi NE 17.3 mph - N/A   Scattered Clouds
2:30 PM 80.6 °F 80.5 °F 55.4 °F 42% 30.04 in 6.2 mi ENE 17.3 mph - N/A   Scattered Clouds
3:00 PM 81 °F - 55 °F 31%  in 19 mi NE 13.8 mph - -   Mostly Cloudy
3:00 PM 80.6 °F 80.5 °F 55.4 °F 42% 30.04 in 6.2 mi NE 13.8 mph - N/A   Scattered Clouds
3:30 PM 80.6 °F 80.5 °F 55.4 °F 42% 30.04 in 6.2 mi NE 16.1 mph - N/A   Scattered Clouds
4:00 PM 82.4 °F 81.7 °F 55.4 °F 39% 30.01 in 6.2 mi NE 18.4 mph - N/A   Scattered Clouds
4:30 PM 80.6 °F 80.5 °F 55.4 °F 42% 30.01 in 6.2 mi NE 16.1 mph - N/A   Scattered Clouds
5:00 PM 78.8 °F - 53.6 °F 42% 30.01 in 6.2 mi NE 17.3 mph - N/A   Scattered Clouds
5:30 PM 78.8 °F - 53.6 °F 42% 30.01 in 6.2 mi NE 18.4 mph - N/A   Scattered Clouds
6:00 PM 77.0 °F - 55.4 °F 47% 30.01 in 6.2 mi NE 16.1 mph - N/A   Mostly Cloudy
6:30 PM 75.2 °F - 53.6 °F 47% 30.01 in 6.2 mi NE 17.3 mph - N/A   Scattered Clouds
7:00 PM 73.4 °F - 53.6 °F 50% 30.01 in 6.2 mi NE 17.3 mph - N/A   Scattered Clouds
7:30 PM 71.6 °F - 57.2 °F 60% 30.06 in 6.2 mi East 15.0 mph - N/A   Mostly Cloudy
8:00 PM 69.8 °F - 57.2 °F 64% 30.06 in 6.2 mi East 17.3 mph - N/A   Mostly Cloudy
8:30 PM 69.8 °F - 57.2 °F 64% 30.06 in 6.2 mi East 18.4 mph - N/A   Scattered Clouds
9:00 PM 68 °F - 57 °F 59%  in 19 mi ENE 17.3 mph - -   Partly Cloudy
9:00 PM 68.0 °F - 57.2 °F 68% 30.06 in 6.2 mi ENE 17.3 mph - N/A   Partly Cloudy
9:30 PM 66.2 °F - 57.2 °F 73% 30.09 in 6.2 mi ENE 13.8 mph - N/A   Partly Cloudy
10:00 PM 66.2 °F - 57.2 °F 73% 30.09 in 6.2 mi ENE 12.7 mph - N/A   Partly Cloudy
10:30 PM 64.4 °F - 57.2 °F 77% 30.12 in 6.2 mi ENE 11.5 mph - N/A   Partly Cloudy
11:00 PM 64.4 °F - 59.0 °F 83% 30.12 in - ENE 9.2 mph - N/A   Clear
11:30 PM 62.6 °F - 59.0 °F 88% 30.12 in - ENE 8.1 mph - N/A   Clear